This demonstration page uses our WeatherBlox Daily Observations layout. Learn more.

Left ArrowRight Arrow

39.51506, -84.39828

Hourly Observations for October 17, 2021

Temp ( °F °C ) Dew Point ( °F °C ) Humidity (%) Winds ( mph kmh ) Pressure ( in mb ) Visibility ( mi km ) Precip ( " mm )
12:15 am 00:15 Clear 44 6.5 42 5.6 94 94 W 6 9 30.16 1021 10 16 N/A
12:35 am 00:35 Clear 43 6.1 42 5.3 95 95 W 7 11 30.16 1021 10 16 N/A
12:55 am 00:55 Clear 42 5.5 41 5.1 97 97 W 6 9 30.16 1021 10 16 N/A
1:15 am 01:15 Partly Cloudy 42 5.4 41 5.1 98 98 W 6 9 30.15 1021 10 16 N/A
1:35 am 01:35 Partly Cloudy 44 6.7 41 5.2 90 90 W 8 13 30.15 1021 10 16 N/A
1:55 am 01:55 Clear 44 6.4 41 5 91 91 W 7 11 30.15 1021 10 16 N/A
2:15 am 02:15 Clear 43 6.3 41 5 91 91 W 6 9 30.15 1021 10 16 N/A
2:35 am 02:35 Clear 42 5.4 40 4.7 95 95 W 7 11 30.15 1021 10 16 N/A
2:55 am 02:55 Clear 43 6 40 4.7 91 91 W 6 9 30.15 1021 10 16 N/A
3:15 am 03:15 Clear 44 6.6 40 4.7 88 88 WSW 6 9 30.14 1021 10 16 N/A
3:35 am 03:35 Clear 43 6.1 40 4.4 89 89 SW 3 6 30.14 1021 10 16 N/A
3:55 am 03:55 Clear 43 6.1 40 4.4 89 89 SW 5 7 30.15 1021 10 16 N/A
4:15 am 04:15 Clear 42 5.5 40 4.2 91 91 SSW 5 7 30.15 1021 10 16 N/A
4:35 am 04:35 Clear 42 5.3 40 4.3 93 93 SSW 6 9 30.15 1021 10 16 N/A
4:55 am 04:55 Clear 42 5.4 41 4.8 96 96 S 5 7 30.15 1021 10 16 N/A
5:15 am 05:15 Clear 42 5.5 41 4.8 95 95 S 6 9 30.15 1021 10 16 N/A
5:35 am 05:35 Clear 41 5.1 40 4.5 96 96 S 5 7 30.16 1021 10 16 0.01 0.25
5:55 am 05:55 Clear 42 5.6 40 4.5 93 93 S 5 7 30.16 1021 10 16 0.01 0.25
6:15 am 06:15 Clear 42 5.3 40 4.3 93 93 S 6 9 30.16 1021 10 16 N/A
6:35 am 06:35 Clear 41 5.2 40 4.4 95 95 S 6 9 30.17 1022 10 16 N/A
6:55 am 06:55 Clear 41 4.8 40 4.4 97 97 S 5 7 30.17 1022 10 16 N/A
7:15 am 07:15 Clear 41 5 40 4.6 97 97 S 5 7 30.17 1022 10 16 N/A
7:35 am 07:35 Clear 40 4.6 40 4.2 97 97 S 6 9 30.17 1022 10 16 N/A
7:55 am 07:55 Sunny 41 4.8 40 4.3 97 97 S 6 9 30.17 1022 10 16 N/A
8:15 am 08:15 Sunny 40 4.4 40 4.2 99 99 S 5 7 30.18 1022 10 16 N/A
8:35 am 08:35 Sunny 42 5.8 41 5 95 95 S 5 7 30.19 1022 10 16 N/A
8:55 am 08:55 Sunny 44 6.9 42 5.6 92 92 S 3 6 30.19 1022 10 16 N/A
9:15 am 09:15 Sunny 46 7.8 42 5.5 86 86 S 5 7 30.18 1022 10 16 N/A
9:35 am 09:35 Sunny 49 9.2 42 5.3 77 77 WSW 6 9 30.18 1022 10 16 N/A
9:55 am 09:55 Sunny 51 10.4 41 4.9 69 69 W 7 11 30.18 1022 10 16 N/A
10:15 am 10:15 Sunny 53 11.7 42 5.4 66 66 W 7 11 30.17 1022 10 16 N/A
10:35 am 10:35 Sunny 55 12.7 40 4.6 58 58 W 8 13 30.17 1022 10 16 N/A
10:55 am 10:55 Sunny 57 13.7 40 4.7 55 55 W 9 15 30.17 1022 10 16 N/A
11:15 am 11:15 Sunny 58 14.5 41 4.8 52 52 WSW 8 13 30.17 1022 10 16 N/A
11:35 am 11:35 Sunny 60 15.4 41 5.1 51 51 W 7 11 30.16 1021 10 16 N/A
11:55 am 11:55 Sunny 61 16.1 39 4 45 45 W 13 20 30.15 1021 10 16 N/A
12:15 pm 12:15 Sunny 62 16.4 38 3.4 42 42 W 12 19 30.15 1021 10 16 N/A
12:35 pm 12:35 Sunny 63 17.2 36 2.2 37 37 W 15 24 30.15 1021 10 16 N/A
12:55 pm 12:55 Sunny 63 17.4 37 2.6 37 37 W 15 24 30.15 1021 10 16 N/A
1:15 pm 13:15 Sunny 64 17.7 37 2.5 36 36 W 14 22 30.14 1021 10 16 N/A
1:35 pm 13:35 Sunny 64 18 35 1.5 33 33 W 18 30 30.13 1020 10 16 N/A
1:55 pm 13:55 Sunny 65 18.5 37 2.9 36 36 WNW 13 20 30.12 1020 10 16 N/A
2:15 pm 14:15 Sunny 66 18.8 38 3.1 35 35 W 14 22 30.11 1020 10 16 N/A
2:35 pm 14:35 Sunny 66 18.7 36 2.4 34 34 WNW 14 22 30.10 1019 10 16 N/A
2:55 pm 14:55 Sunny 67 19.2 37 2.5 33 33 W 16 26 30.09 1019 10 16 N/A
3:15 pm 15:15 Sunny 67 19.3 37 3 34 34 WNW 12 19 30.09 1019 10 16 N/A
3:35 pm 15:35 Sunny 67 19.3 36 2.4 33 33 W 17 28 30.08 1018 10 16 N/A
3:55 pm 15:55 Sunny 67 19.6 37 2.7 33 33 W 14 22 30.08 1018 10 16 N/A
4:15 pm 16:15 Sunny 67 19.7 38 3.5 34 34 W 14 22 30.08 1018 10 16 N/A
4:35 pm 16:35 Sunny 67 19.3 38 3.5 35 35 WNW 12 19 30.07 1018 10 16 N/A
4:55 pm 16:55 Sunny 67 19.2 37 3 34 34 W 12 19 30.07 1018 10 16 N/A
5:15 pm 17:15 Sunny 66 18.8 38 3.5 36 36 WNW 13 20 30.08 1019 10 16 N/A
5:35 pm 17:35 Sunny 65 18.4 38 3.6 38 38 WNW 13 20 30.08 1019 10 16 N/A
5:55 pm 17:55 Sunny 64 17.9 37 3 37 37 WNW 12 19 30.08 1019 10 16 N/A
6:15 pm 18:15 Sunny 63 17 38 3.6 41 41 WNW 8 13 30.09 1019 10 16 N/A
6:35 pm 18:35 Sunny 60 15.3 39 4.1 47 47 WNW 6 9 30.10 1019 10 16 N/A
6:55 pm 18:55 Sunny 58 14.4 39 4.1 50 50 WNW 6 9 30.10 1019 10 16 N/A
7:15 pm 19:15 Clear 55 12.8 42 5.5 61 61 WNW 5 7 30.11 1020 10 16 N/A
7:35 pm 19:35 Clear 52 11.2 45 7.1 76 76 WNW 5 7 30.12 1020 10 16 N/A
7:55 pm 19:55 Clear 50 10.1 46 7.5 84 84 WNW 3 6 30.13 1020 10 16 N/A
8:15 pm 20:15 Clear 48 9.1 45 7 87 87 W 5 7 30.13 1020 10 16 N/A
8:35 pm 20:35 Clear 47 8.5 46 7.7 95 95 WNW 3 6 30.14 1021 10 16 N/A
8:55 pm 20:55 Clear 47 8.3 46 7.6 95 95 N N/A 30.14 1021 10 16 N/A
9:15 pm 21:15 Clear 48 8.9 45 7.3 90 90 N N/A 30.14 1021 10 16 N/A
9:35 pm 21:35 Clear 48 8.9 46 7.7 92 92 N N/A 30.15 1021 10 16 N/A
9:55 pm 21:55 Clear 46 7.8 44 6.7 93 93 N N/A 30.15 1021 10 16 N/A
10:15 pm 22:15 Clear 45 7 45 7 100 100 N N/A 30.16 1021 10 16 N/A
10:35 pm 22:35 Clear 45 7 45 7 100 100 N N/A 30.17 1022 10 16 N/A
10:55 pm 22:55 Clear 45 7 45 7 100 100 N N/A 30.17 1022 10 16 N/A
11:15 pm 23:15 Clear 45 7 N/A N/A N N/A 30.17 1022 10 16 N/A
11:35 pm 23:35 Clear 43 6 N/A N/A N N/A 30.17 1022 10 16 N/A
11:55 pm 23:55 Clear 43 6 N/A N/A SW 3 6 30.18 1022 10 16 N/A

Powered by AerisWeather